Date String (YYYY-MM-DD hh:mm:ss) UTC,Instrument flags,absolute air pressure of the measurement (hPa),sample flow rate (lpm),inlet stack bypass flow (lpm),air temperature of the measurement (°C),ambient temperature measured by the external sensor (°C),aerosol sample conditioner tube jacket temperature (°C),OPC LED temperature (°C),internal box temperature (°C),relative humidity of the measurement (%),span deviation,mass concentration of particles derived from Lorenz-Mie calculation of OPC scattering (μg/m³),mass concentration of particles derived from Lorenz-Mie calculation of OPC scattering (μg/m³),mass concentration of particles derived from Lorenz-Mie calculation of OPC scattering (μg/m³)
DateTimeUTC,F1_M11,P_M11,Q1_M11,Q2_M11,T1_M11,T2_M11,T3_M11,T4_M11,T5_M11,U1_M11,ZSPAN_M11,X2_M11,X0_M11,X1_M11
2023-09-17 11:00:00,SystemResetWarning,0835.3,5.01,000.00,028.5,026.9,000.0,036.9,030.0,15.5,0000.0,0003.66,0005.92,0003.29
2023-09-17 11:01:00,SystemResetWarning,0835.3,5.01,000.00,028.5,026.9,000.0,036.9,030.0,15.5,0000.0,0003.66,0005.95,0003.30
2023-09-17 11:02:00,SystemResetWarning,0835.3,5.01,000.00,028.5,026.9,000.0,036.9,030.0,15.5,0000.0,0003.67,0005.95,0003.31
2023-09-17 11:03:00,SystemResetWarning,0835.3,5.01,000.00,028.5,026.9,000.0,036.9,030.0,15.4,0000.0,0003.69,0005.99,0003.31
2023-09-17 11:04:00,SystemResetWarning,0835.3,4.99,000.00,028.5,026.9,000.0,036.9,030.0,15.4,0000.0,0003.74,0006.35,0003.32
2023-09-17 11:05:00,SystemResetWarning,0835.3,4.99,000.00,028.5,026.9,000.0,036.9,030.0,15.4,0000.0,0003.76,0006.42,0003.32
2023-09-17 11:06:00,SystemResetWarning,0835.3,5.00,000.00,028.5,026.9,000.0,036.9,030.0,15.3,0000.0,0003.75,0006.40,0003.32
2023-09-17 11:07:00,SystemResetWarning,0835.3,5.01,000.00,028.5,026.9,000.0,036.9,030.0,15.3,0000.0,0003.73,0007.08,0003.32
2023-09-17 11:08:00,SystemResetWarning,0835.3,5.00,000.00,028.5,026.9,000.0,036.9,030.0,15.4,0000.0,0003.74,0007.13,0003.33
2023-09-17 11:09:00,SystemResetWarning,0835.3,4.99,000.00,028.5,026.9,000.0,036.9,030.0,15.5,0000.0,0003.75,0007.20,0003.35
2023-09-17 11:10:00,SystemResetWarning,0835.3,4.99,000.00,028.5,026.9,000.0,036.9,030.0,15.7,0000.0,0003.78,0007.22,0003.37
2023-09-17 11:11:00,SystemResetWarning,0835.3,5.00,000.00,028.5,026.9,000.0,036.9,030.0,15.8,0000.0,0003.78,0006.96,0003.37
2023-09-17 11:12:00,SystemResetWarning,0835.3,5.01,000.00,028.4,026.9,000.0,036.9,030.0,15.8,0000.0,0003.79,0006.97,0003.37
2023-09-17 11:13:00,SystemResetWarning,0835.3,5.00,000.00,028.4,026.9,000.0,036.9,030.0,15.8,0000.0,0003.81,0007.03,0003.36
2023-09-17 11:14:00,SystemResetWarning,0835.3,4.99,000.00,028.4,026.9,000.0,036.9,030.0,15.8,0000.0,0003.82,0007.40,0003.36
2023-09-17 11:15:00,SystemResetWarning,0835.3,5.00,000.00,028.4,026.9,000.0,036.9,030.0,15.7,0000.0,0003.79,0007.41,0003.37
2023-09-17 11:16:00,SystemResetWarning,0835.3,4.99,000.00,028.4,026.9,000.0,036.9,030.0,15.8,0000.0,0003.79,0007.40,0003.38
2023-09-17 11:17:00,SystemResetWarning,0835.3,5.00,000.00,028.4,026.9,000.0,036.9,030.0,15.7,0000.0,0003.78,0007.42,0003.37
2023-09-17 11:18:00,SystemResetWarning,0835.2,5.01,000.00,028.4,026.9,000.0,036.9,030.0,15.5,0000.0,0003.77,0006.83,0003.36
2023-09-17 11:19:00,SystemResetWarning,0835.2,5.01,000.00,028.4,026.9,000.0,036.9,030.0,15.5,0000.0,0003.73,0006.45,0003.35
2023-09-17 11:20:00,SystemResetWarning,0835.2,5.00,000.00,028.4,026.9,000.0,036.9,030.0,15.6,0000.0,0003.73,0006.48,0003.33
2023-09-17 11:21:00,SystemResetWarning,0835.2,4.99,000.00,028.4,026.9,000.0,036.9,029.9,15.6,0000.0,0003.74,0006.52,0003.32
2023-09-17 11:22:00,SystemResetWarning,0835.2,4.99,000.00,028.4,026.9,000.0,036.9,030.0,15.6,0000.0,0003.73,0006.52,0003.31
2023-09-17 11:23:00,SystemResetWarning,0835.2,4.99,000.00,028.4,026.8,000.0,036.9,030.0,15.5,0000.0,0003.72,0006.49,0003.30
2023-09-17 11:24:00,SystemResetWarning,0835.2,5.00,000.00,028.4,026.8,000.0,036.9,030.0,15.4,0000.0,0003.66,0006.23,0003.29
2023-09-17 11:25:00,SystemResetWarning,0835.2,5.01,000.00,028.4,026.8,000.0,036.9,030.0,15.4,0000.0,0003.64,0005.80,0003.28
2023-09-17 11:26:00,SystemResetWarning,0835.2,5.00,000.00,028.4,026.8,000.0,036.8,030.0,15.4,0000.0,0003.62,0005.41,0003.27
2023-09-17 11:27:00,SystemResetWarning,0835.2,5.01,000.00,028.4,026.9,000.0,036.8,030.0,15.5,0000.0,0003.60,0005.33,0003.25
2023-09-17 11:28:00,SystemResetWarning,0835.3,4.99,000.00,028.4,026.8,000.0,036.8,030.0,15.7,0000.0,0003.60,0005.27,0003.25
2023-09-17 11:29:00,SystemResetWarning,0835.2,5.00,000.00,028.4,026.9,000.0,036.8,030.0,15.9,0000.0,0003.59,0005.20,0003.24
2023-09-17 11:30:00,SystemResetWarning,0835.3,5.00,000.00,028.4,026.9,000.0,036.9,030.0,15.6,0000.0,0003.61,0005.38,0003.23
2023-09-17 11:31:00,SystemResetWarning,0835.3,4.99,000.00,028.4,026.9,000.0,036.9,030.0,15.6,0000.0,0003.60,0005.32,0003.23
2023-09-17 11:32:00,SystemResetWarning,0835.3,5.00,000.00,028.4,026.9,000.0,036.8,030.0,15.5,0000.0,0003.56,0005.12,0003.22
2023-09-17 11:33:00,SystemResetWarning,0835.3,5.00,000.00,028.4,026.8,000.0,036.8,030.0,15.4,0000.0,0003.52,0005.05,0003.21
2023-09-17 11:34:00,SystemResetWarning,0835.3,5.00,000.00,028.4,026.8,000.0,036.8,029.9,15.5,0000.0,0003.50,0004.97,0003.21
2023-09-17 11:35:00,SystemResetWarning,0835.2,5.01,000.00,028.4,026.8,000.0,036.8,029.9,15.8,0000.0,0003.53,0005.09,0003.21
2023-09-17 11:36:00,SystemResetWarning,0835.2,5.01,000.00,028.4,026.8,000.0,036.8,029.9,15.5,0000.0,0003.54,0005.30,0003.20
2023-09-17 11:37:00,SystemResetWarning,0835.2,5.00,000.00,028.4,026.8,000.0,036.8,029.9,15.9,0000.0,0003.53,0005.36,0003.18
2023-09-17 11:38:00,SystemResetWarning,0835.2,4.99,000.00,028.4,026.8,000.0,036.8,029.9,15.4,0000.0,0003.53,0005.41,0003.17
2023-09-17 11:39:00,SystemResetWarning,0835.3,4.99,000.00,028.4,026.8,000.0,036.8,029.9,15.2,0000.0,0003.53,0005.44,0003.17
2023-09-17 11:40:00,SystemResetWarning,0835.2,5.00,000.00,028.4,026.8,000.0,036.8,029.9,15.5,0000.0,0003.53,0005.48,0003.17
2023-09-17 11:41:00,SystemResetWarning,0835.2,5.01,000.00,028.4,026.9,000.0,036.8,029.9,15.5,0000.0,0003.50,0005.31,0003.16
2023-09-17 11:42:00,SystemResetWarning,0835.2,5.01,000.00,028.4,026.9,000.0,036.8,029.9,15.4,0000.0,0003.48,0005.24,0003.15
2023-09-17 11:43:00,SystemResetWarning,0835.2,4.99,000.00,028.4,026.9,000.0,036.8,029.9,15.2,0000.0,0003.48,0005.23,0003.15
2023-09-17 11:44:00,SystemResetWarning,0835.3,4.99,000.00,028.4,026.9,000.0,036.8,029.9,15.3,0000.0,0003.48,0005.19,0003.15
2023-09-17 11:45:00,SystemResetWarning,0835.3,5.00,000.00,028.4,026.8,000.0,036.8,029.9,15.3,0000.0,0003.47,0005.33,0003.15
2023-09-17 11:46:00,SystemResetWarning,0835.3,5.00,000.00,028.4,026.8,000.0,036.8,029.9,15.3,0000.0,0003.46,0005.66,0003.16
2023-09-17 11:47:00,SystemResetWarning,0835.3,5.00,000.00,028.4,026.8,000.0,036.8,029.9,15.3,0000.0,0003.43,0005.41,0003.16
2023-09-17 11:48:00,SystemResetWarning,0835.2,5.01,000.00,028.4,026.8,000.0,036.8,029.9,15.3,0000.0,0003.44,0005.40,0003.17
2023-09-17 11:49:00,SystemResetWarning,0835.3,5.01,000.00,028.4,026.8,000.0,036.8,029.9,15.3,0000.0,0003.46,0005.52,0003.18
2023-09-17 11:50:00,SystemResetWarning,0835.3,5.00,000.00,028.4,026.8,000.0,036.8,029.9,15.3,0000.0,0003.45,0005.46,0003.19
2023-09-17 11:51:00,SystemResetWarning,0835.3,4.99,000.00,028.4,026.8,000.0,036.8,029.9,15.3,0000.0,0003.45,0005.50,0003.20
2023-09-17 11:52:00,SystemResetWarning,0835.3,4.99,000.00,028.4,026.7,000.0,036.8,029.9,15.4,0000.0,0003.46,0005.93,0003.21
2023-09-17 11:53:00,SystemResetWarning,0835.3,5.00,000.00,028.4,026.7,000.0,036.8,029.9,15.3,0000.0,0003.47,0007.25,0003.21
2023-09-17 11:54:00,SystemResetWarning,0835.3,5.02,000.00,028.4,026.7,000.0,036.8,029.9,15.3,0000.0,0003.51,0007.51,0003.21
2023-09-17 11:55:00,SystemResetWarning,0835.3,5.00,000.00,028.3,026.8,000.0,036.8,029.9,15.3,0000.0,0003.55,0007.57,0003.23
2023-09-17 11:56:00,SystemResetWarning,0835.3,4.99,000.00,028.3,026.8,000.0,036.8,029.9,15.4,0000.0,0003.57,0007.55,0003.24
2023-09-17 11:57:00,SystemResetWarning,0835.3,5.00,000.00,028.3,026.7,000.0,036.8,029.9,15.4,0000.0,0003.58,0007.37,0003.24
2023-09-17 11:58:00,SystemResetWarning,0835.3,5.00,000.00,028.3,026.8,000.0,036.8,029.9,15.3,0000.0,0003.61,0007.47,0003.24
2023-09-17 11:59:00,SystemResetWarning,0835.3,5.00,000.00,028.3,026.8,000.0,036.8,029.9,15.3,0000.0,0003.64,0007.55,0003.23
